Location: Bukit Setapoh
(2.2500°N, 113.8000°E)
Time: 23:20:15
(UTC+00:00)

Cosmos 1833 Rocket - Pass Details

Date: 25 July 2021
Orbit: 834 x 838 km, 71.0° (Epoch: 18 September)

Event Time Altitude Azimuth Distance (km) Brightness Sun altitude
Rises 11:22:12 0° 189° (S) 3,385 5.7 -11.2°
Reaches altitude 10° 11:24:40 10° 185° (S) 2,449 5.0 -11.8°
Maximum altitude 11:30:13 62° 105° (ESE) 934 2.6 -13.1°
Drops below altitude 10° 11:35:45 10° 25° (NNE) 2,441 5.1 -14.4°
Sets 11:38:12 0° 22° (NNE) 3,373 5.8 -14.9°
